{"data":{"norad_id":64244,"epoch":"2026-09-20T23:04:59.254752Z","epoch_age_seconds":97687,"freshness":"FRESH","line1":"1 64244U 25119M   26263.96179693  .00150501  00000+0  11488-2 0  9992","line2":"2 64244  42.9996 112.2835 0005149 256.4317 103.5977 15.70961508 75950","mean_motion":15.70961508,"eccentricity":0.0005149,"inclination_deg":42.9996,"raan_deg":112.2835,"arg_perigee_deg":256.4317,"mean_anomaly_deg":103.5977,"bstar":0.0011488,"rev_number":7595,"period_min":91.663608093955,"perigee_km":352.6803081099,"apogee_km":359.61527458803,"semimajor_km":6734.284791349,"source":"CELESTRAK","updated_at":"2026-09-21T09:00:35.278491Z"}}